When you browse on this site, cookies collect data to enhance your experience and personalize the content and advertising you see.
Visit our Privacy Policy to learn more. By continuing to use the site, you agree to this use of cookies and data.
  • In Schweiz
  • Länderverzeichnis
  • Für 7 Tage
  • Wassertemperatur
  • Satellitenkarten
  • Wetterkarte
  • Widgets
  • user-avatar
    Anmelden

    Stündliche Wetter Larnaka

    Heute, 18 Juni, Dienstag

    Zeit Temperatur Niederschläge Wind Luftdruck Luftfeuchtigkeit
    00:00 +24°C° 0 mm 6 m/S 757 mmHg 79%
    01:00 +24°C° 0 mm 6 m/S 756 mmHg 77%
    02:00 +24°C° 0 mm 6 m/S 756 mmHg 80%
    03:00 +25°C° 0 mm 5 m/S 756 mmHg 83%
    04:00 +23°C° 0 mm 5 m/S 756 mmHg 87%
    05:00 +23°C° 0 mm 5 m/S 757 mmHg 90%
    06:00 +26°C° 0 mm 5 m/S 757 mmHg 84%
    07:00 +27°C° 0 mm 6 m/S 757 mmHg 78%
    08:00 +28°C° 0 mm 6 m/S 757 mmHg 72%
    09:00 +29°C° 0 mm 6 m/S 758 mmHg 67%
    10:00 +30°C° 0 mm 7 m/S 758 mmHg 62%
    11:00 +32°C° 0 mm 8 m/S 758 mmHg 57%
    12:00 +32°C° 0 mm 8 m/S 758 mmHg 57%
    13:00 +32°C° 0 mm 9 m/S 758 mmHg 56%
    14:00 +32°C° 0 mm 9 m/S 757 mmHg 56%
    15:00 +31°C° 0 mm 9 m/S 757 mmHg 58%
    16:00 +31°C° 0 mm 9 m/S 757 mmHg 61%
    17:00 +29°C° 0 mm 8 m/S 757 mmHg 63%
    18:00 +28°C° 0 mm 8 m/S 757 mmHg 68%
    19:00 +27°C° 0 mm 7 m/S 757 mmHg 72%
    20:00 +26°C° 0 mm 6 m/S 757 mmHg 77%
    21:00 +26°C° 0 mm 6 m/S 757 mmHg 78%
    22:00 +26°C° 0 mm 6 m/S 757 mmHg 79%
    23:00 +24°C° 0 mm 6 m/S 757 mmHg 80%

    Morgen, 19 Juni, Mittwoch

    Zeit Temperatur Niederschläge Wind Luftdruck Luftfeuchtigkeit
    00:00 +24°C° 0 mm 6 m/S 757 mmHg 82%
    01:00 +25°C° 0 mm 5 m/S 756 mmHg 83%
    02:00 +23°C° 0 mm 5 m/S 756 mmHg 84%
    03:00 +23°C° 0 mm 5 m/S 756 mmHg 84%
    04:00 +23°C° 0 mm 5 m/S 756 mmHg 84%
    05:00 +23°C° 0 mm 5 m/S 756 mmHg 84%
    06:00 +26°C° 0 mm 5 m/S 756 mmHg 76%
    07:00 +27°C° 0 mm 5 m/S 756 mmHg 69%
    08:00 +29°C° 0 mm 6 m/S 756 mmHg 62%
    09:00 +30°C° 0 mm 6 m/S 757 mmHg 58%
    10:00 +32°C° 0 mm 7 m/S 757 mmHg 54%
    11:00 +33°C° 0 mm 7 m/S 757 mmHg 51%
    12:00 +33°C° 0 mm 8 m/S 757 mmHg 51%
    13:00 +34°C° 0 mm 8 m/S 757 mmHg 50%
    14:00 +34°C° 0 mm 8 m/S 756 mmHg 50%
    15:00 +33°C° 0 mm 8 m/S 756 mmHg 52%
    16:00 +32°C° 0 mm 9 m/S 755 mmHg 53%
    17:00 +31°C° 0 mm 9 m/S 755 mmHg 55%
    18:00 +29°C° 0 mm 8 m/S 755 mmHg 62%
    19:00 +28°C° 0 mm 8 m/S 755 mmHg 69%
    20:00 +27°C° 0 mm 7 m/S 755 mmHg 75%
    21:00 +26°C° 0 mm 7 m/S 755 mmHg 77%
    22:00 +26°C° 0 mm 6 m/S 755 mmHg 79%
    23:00 +24°C° 0 mm 6 m/S 755 mmHg 80%

    übermorgen, 20 Juni, Donnerstag

    Zeit Temperatur Niederschläge Wind Luftdruck Luftfeuchtigkeit
    00:00 +24°C° 0 mm 7 m/S 755 mmHg 81%
    01:00 +24°C° 0 mm 7 m/S 755 mmHg 83%
    02:00 +24°C° 0 mm 8 m/S 755 mmHg 84%
    03:00 +23°C° 0 mm 8 m/S 755 mmHg 82%
    04:00 +23°C° 0 mm 7 m/S 755 mmHg 81%
    05:00 +22°C° 0 mm 7 m/S 755 mmHg 79%
    06:00 +24°C° 0 mm 7 m/S 755 mmHg 69%
    07:00 +27°C° 0 mm 7 m/S 755 mmHg 60%
    08:00 +29°C° 0 mm 7 m/S 755 mmHg 51%
    09:00 +30°C° 0 mm 7 m/S 755 mmHg 53%
    10:00 +32°C° 0 mm 8 m/S 756 mmHg 54%
    11:00 +33°C° 0 mm 8 m/S 756 mmHg 56%
    12:00 +34°C° 0 mm 9 m/S 756 mmHg 52%
    13:00 +34°C° 0 mm 10 m/S 755 mmHg 49%
    14:00 +36°C° 0 mm 10 m/S 755 mmHg 45%
    15:00 +34°C° 0 mm 10 m/S 755 mmHg 48%
    16:00 +33°C° 0 mm 11 m/S 755 mmHg 52%
    17:00 +31°C° 0 mm 11 m/S 755 mmHg 55%
    18:00 +29°C° 0 mm 10 m/S 755 mmHg 61%
    19:00 +28°C° 0 mm 9 m/S 755 mmHg 67%
    20:00 +27°C° 0 mm 9 m/S 755 mmHg 73%
    21:00 +26°C° 0 mm 9 m/S 755 mmHg 76%
    22:00 +26°C° 0 mm 8 m/S 755 mmHg 79%
    23:00 +24°C° 0 mm 8 m/S 755 mmHg 81%

    21 Juni, Freitag

    Zeit Temperatur Niederschläge Wind Luftdruck Luftfeuchtigkeit
    00:00 +24°C° 0 mm 8 m/S 755 mmHg 81%
    01:00 +24°C° 0 mm 7 m/S 755 mmHg 82%
    02:00 +24°C° 0 mm 7 m/S 755 mmHg 82%
    03:00 +24°C° 0 mm 6 m/S 755 mmHg 80%
    04:00 +24°C° 0 mm 6 m/S 755 mmHg 78%
    05:00 +23°C° 0 mm 5 m/S 755 mmHg 77%
    06:00 +26°C° 0 mm 5 m/S 755 mmHg 71%
    07:00 +27°C° 0 mm 4 m/S 755 mmHg 66%
    08:00 +29°C° 0 mm 4 m/S 756 mmHg 61%
    09:00 +30°C° 0 mm 5 m/S 756 mmHg 60%
    10:00 +32°C° 0 mm 5 m/S 756 mmHg 59%
    11:00 +33°C° 0 mm 6 m/S 756 mmHg 59%
    12:00 +33°C° 0 mm 6 m/S 756 mmHg 58%
    13:00 +33°C° 0 mm 6 m/S 756 mmHg 58%
    14:00 +34°C° 0 mm 6 m/S 755 mmHg 58%
    15:00 +34°C° 0 mm 6 m/S 755 mmHg 57%
    16:00 +33°C° 0 mm 6 m/S 755 mmHg 55%
    17:00 +33°C° 0 mm 6 m/S 755 mmHg 54%
    18:00 +32°C° 0 mm 6 m/S 755 mmHg 58%
    19:00 +30°C° 0 mm 6 m/S 755 mmHg 62%
    20:00 +29°C° 0 mm 6 m/S 755 mmHg 66%
    21:00 +28°C° 0 mm 6 m/S 755 mmHg 68%
    22:00 +28°C° 0 mm 6 m/S 755 mmHg 70%
    23:00 +27°C° 0 mm 5 m/S 755 mmHg 72%

    22 Juni, Samstag

    Zeit Temperatur Niederschläge Wind Luftdruck Luftfeuchtigkeit
    00:00 +27°C° 0 mm 5 m/S 755 mmHg 76%
    01:00 +26°C° 0 mm 5 m/S 755 mmHg 81%
    02:00 +26°C° 0 mm 5 m/S 755 mmHg 85%
    03:00 +25°C° 0 mm 5 m/S 755 mmHg 86%
    04:00 +25°C° 0 mm 4 m/S 755 mmHg 87%
    05:00 +25°C° 0 mm 4 m/S 755 mmHg 88%
    06:00 +27°C° 0 mm 4 m/S 755 mmHg 80%
    07:00 +28°C° 0 mm 4 m/S 756 mmHg 71%
    08:00 +30°C° 0 mm 4 m/S 756 mmHg 63%
    09:00 +32°C° 0 mm 5 m/S 756 mmHg 60%
    10:00 +33°C° 0 mm 5 m/S 756 mmHg 58%
    11:00 +34°C° 0 mm 5 m/S 756 mmHg 55%
    12:00 +34°C° 0 mm 5 m/S 756 mmHg 55%
    13:00 +34°C° 0 mm 6 m/S 756 mmHg 55%
    14:00 +34°C° 0 mm 6 m/S 756 mmHg 55%
    15:00 +34°C° 0 mm 6 m/S 756 mmHg 56%
    16:00 +33°C° 0 mm 6 m/S 755 mmHg 58%
    17:00 +33°C° 0 mm 6 m/S 755 mmHg 59%
    18:00 +30°C° 0 mm 6 m/S 755 mmHg 65%
    19:00 +29°C° 0 mm 6 m/S 756 mmHg 72%
    20:00 +28°C° 0 mm 6 m/S 756 mmHg 78%
    21:00 +28°C° 0 mm 5 m/S 756 mmHg 78%
    22:00 +28°C° 0 mm 4 m/S 756 mmHg 78%
    23:00 +27°C° 0 mm 3 m/S 756 mmHg 78%

    23 Juni, Sonntag

    Zeit Temperatur Niederschläge Wind Luftdruck Luftfeuchtigkeit
    00:00 +27°C° 0 mm 3 m/S 756 mmHg 80%
    01:00 +27°C° 0 mm 3 m/S 756 mmHg 82%
    02:00 +26°C° 0 mm 3 m/S 756 mmHg 84%
    03:00 +26°C° 0 mm 3 m/S 756 mmHg 84%
    04:00 +26°C° 0 mm 3 m/S 756 mmHg 84%
    05:00 +26°C° 0 mm 3 m/S 756 mmHg 84%
    06:00 +28°C° 0 mm 3 m/S 756 mmHg 75%
    07:00 +29°C° 0 mm 3 m/S 756 mmHg 66%
    08:00 +31°C° 0 mm 3 m/S 756 mmHg 58%
    09:00 +33°C° 0 mm 3 m/S 757 mmHg 56%
    10:00 +34°C° 0 mm 4 m/S 757 mmHg 54%
    11:00 +35°C° 0 mm 4 m/S 757 mmHg 53%
    12:00 +35°C° 0 mm 4 m/S 757 mmHg 52%
    13:00 +36°C° 0 mm 5 m/S 756 mmHg 51%
    14:00 +36°C° 0 mm 5 m/S 756 mmHg 50%
    15:00 +36°C° 0 mm 6 m/S 756 mmHg 48%
    16:00 +36°C° 0 mm 6 m/S 756 mmHg 47%
    17:00 +36°C° 0 mm 7 m/S 755 mmHg 45%
    18:00 +35°C° 0 mm 6 m/S 755 mmHg 49%
    19:00 +33°C° 0 mm 6 m/S 755 mmHg 54%
    20:00 +32°C° 0 mm 5 m/S 755 mmHg 58%
    21:00 +32°C° 0 mm 5 m/S 755 mmHg 60%
    22:00 +32°C° 0 mm 4 m/S 755 mmHg 61%
    23:00 +30°C° 0 mm 4 m/S 755 mmHg 63%
    Mehr zeigen